Terminal Aerodrome Forecast
Issued by NWS Missoula, MT

Home | Current Version | Previous Version | Text Only | Print | Product List | Glossary On
Versions: 1 2 3 4 5 6 7 8 9 10 11 12
000
FTUS45 KMSO 261723
TAFGPI
TAF
KGPI 261723Z 2618/2718 02006KT P6SM SCT100 BKN120
     FM262000 15006KT P6SM SCT100
     FM270200 VRB03KT P6SM SKC=

USA.gov is the U.S. government's official web portal to all federal, state and local government web resources and services.